This is the latest recevied weather packets stored in our database for station/object I2HLY-4. If no packets are shown the sender has not sent any weather packets the latest 10 day(s).
| Time | Temp. | Humidity | Pressure | Rain* | Wind** | Luminosity | Snow |
|---|---|---|---|---|---|---|---|
| 1777834933 | 12.22° C | 53% | 1019.4 hPa | 0 mm | - | - | - |
| 1777834040 | 12.22° C | 51% | 1019.5 hPa | 0 mm | - | - | - |
| 1777833139 | 12.78° C | 53% | 1019.4 hPa | 0 mm | - | - | - |
| 1777832244 | 12.78° C | 53% | 1019.3 hPa | 0 mm | - | - | - |
| 1777831343 | 13.89° C | 58% | 1019.1 hPa | 0 mm | - | - | - |
| 1777830445 | 14.44° C | 57% | 1019 hPa | 0 mm | - | - | - |
| 1777829550 | 15.56° C | 54% | 1019 hPa | 0 mm | - | - | - |
| 1777828632 | 16.11° C | 48% | 1019.2 hPa | 0 mm | - | - | - |
| 1777827736 | 16.67° C | 45% | 1019.2 hPa | 0 mm | - | - | - |
| 1777826836 | 16.67° C | 47% | 1019.2 hPa | 0 mm | - | - | - |
| 1777825936 | 16.67° C | 48% | 1019.4 hPa | 0 mm | - | - | - |
| 1777825041 | 16.67° C | 46% | 1019.5 hPa | 0 mm | - | - | - |
| 1777824143 | 16.67° C | 45% | 1019.6 hPa | 0 mm | - | - | - |
| 1777823244 | 16.67° C | 45% | 1019.7 hPa | 0 mm | - | - | - |
| 1777822350 | 16.67° C | 45% | 1019.8 hPa | 0 mm | - | - | - |
| 1777821432 | 16.67° C | 44% | 1020 hPa | 0 mm | - | - | - |
| 1777820538 | 16.67° C | 45% | 1020.1 hPa | 0 mm | - | - | - |
| 1777819637 | 16.67° C | 47% | 1020.2 hPa | 0 mm | - | - | - |
| 1777818739 | 17.22° C | 44% | 1020.4 hPa | 0 mm | - | - | - |
| 1777816937 | 17.78° C | 45% | 1020.6 hPa | 0 mm | - | - | - |
| 1777816042 | 17.78° C | 45% | 1020.7 hPa | 0 mm | - | - | - |
| 1777815135 | 17.78° C | 46% | 1020.9 hPa | 0 mm | - | - | - |
| 1777814245 | 17.78° C | 47% | 1020.9 hPa | 0 mm | - | - | - |
| 1777813337 | 17.78° C | 46% | 1020.9 hPa | 0 mm | - | - | - |
| 1777812448 | 17.78° C | 47% | 1020.8 hPa | 0 mm | - | - | - |
* Rain latest hour (hover to see other rain measurements)
** Current wind speed in m/s (hover to see current wind gust speed)